Participated 2 times
Between 1919 and 1920
Urbain Anseeuw, Belgium
Tour de France 2026 starts from Barcelona, Spain in

Stats and Facts from
Tour de France.

2026   2025   2024   2023  2022  2021  2020  2019   2018  2017   2016   2015  2014  2013   2012   2011  2010   2009   2008   2007   2006   2005   2004   2003   2002   2001   2000   1999   1998   1997  1996   1995   1994   1993   1992  1991   1990   1989   1988   1987   1986   1985   1984   1983  1982  1981   1980   1979  1978  1977   1976  1975  1974  1973   1972   1971   1970  1969   1968   1967   1966   1965  1964  1963   1962   1961   1960   1959   1958   1957  1956   1955   1954   1953   1952  1951  1950  1949   1948  1947  1939   1938   1937   1936   1935   1934   1933  1932   1931   1930  1929   1928   1927   1926  1925  1924  1923   1922   1921   1920   1919  1914   1913   1912   1911   1910  1909   1908   1907   1906  1905  1904   1903 

Tourstats
Sitemap

After stage 21 - 2025:
 16451 starters.
  5464 different riders.
  689 teams.
  2398 stages.
  470 restdays.
  466506.50 km.
  5925 abandoned riders.

Click map for 2012 route.
Facts from Tour de France 2012
  |   Stages.  |   Stage winners.  |   Days in jerseys.  |   Teams.  |   All riders.  |   All riders by age.  |   All riders from.  |  

  |   Rookies.  |   Withdrawls.  |   Average speed.  |   GC.  |   Polka  |   Green  |   White  |   Summits. (In tour)  |   Miscellaneous.  |  

Stage 19 on July 21st. 2012
Pick a stage:  Pro  1  2  3  4  5  6  7  8  9  10  11  12  13  14  15  16  17  18  19  20  

After stage 19:    Bradley Wiggins    Thomas  Voeckler    Peter Sagan    Tejay Van Garderen  
  BonnevalChartres | Dist: 53.50km. | Winner: Bradley Wiggins

Podium

Average speed for all riders in stage:  45,258 km./hr.

1
 Bradley Wiggins  Sky Procycling01h 04' 13"=49,987  km/h

2
 Chris Froome  Sky Procycling01h 05' 29"+  00:01:16 =49,020  km/h

3
 Luis León Sánchez  Rabobank01h 06' 03"+  00:01:50 =48,600  km/h

4  Peter Velits  Omega Pharma – Quick Step01h 06' 15"+  00:02:02 =48,453  km/h

5  Richie Porte  Sky Procycling01h 06' 38"+  00:02:25 =48,174  km/h

6  Patrick Gretsch  Argos–Shimano01h 06' 41"+  00:02:28 =48,138  km/h

7  Tejay Van Garderen  BMC01h 06' 47"+  00:02:34 =48,066  km/h

8  Vasil Kiryienka  Movistar01h 06' 59"+  00:02:46 =47,922  km/h

9  Rein Taaramäe  Cofidis Le Credit En Ligne01h 07' 03"+  00:02:50 =47,875  km/h

10  Jérémy Roy  FDJ – Big Mat01h 07' 18"+  00:03:05 =47,697  km/h

11  David Zabriskie  Garmin-Sharp-Barracuda01h 07' 25"+  00:03:12 =47,614  km/h

12  Matthieu Sprick  Argos–Shimano01h 07' 33"+  00:03:20 =47,520  km/h

13  Rubén Plaza  Movistar01h 07' 37"+  00:03:24 =47,474  km/h

14  Daniel Oss  Liquigas-Cannondale01h 07' 40"+  00:03:27 =47,438  km/h

15  Anthony Roux  FDJ – Big Mat01h 07' 47"+  00:03:34 =47,357  km/h

16  Vincenzo Nibali  Liquigas-Cannondale01h 07' 51"+  00:03:38 =47,310  km/h

17  Christian Vandevelde  Garmin-Sharp-Barracuda01h 07' 53"+  00:03:40 =47,287  km/h

18  Bert Grabsch  Omega Pharma – Quick Step01h 07' 56"+  00:03:43 =47,252  km/h

19  Andréas  Klöden  Radioshack–Nissan01h 08' 02"+  00:03:49 =47,183  km/h

20  Jens Voigt  Radioshack–Nissan01h 08' 02"+  00:03:49 =47,183  km/h

21  Christophe Kern  Europcar01h 08' 09"+  00:03:56 =47,102  km/h

22  Dries Devenyns  Omega Pharma – Quick Step01h 08' 10"+  00:03:57 =47,090  km/h

23  Lars Bak  Lotto-Belisol01h 08' 18"+  00:04:05 =46,999  km/h

24  Maxime Monfort  Radioshack–Nissan01h 08' 19"+  00:04:06 =46,987  km/h

25  Dominik Nerz  Liquigas-Cannondale01h 08' 27"+  00:04:14 =46,896  km/h

26  Jurgen Van Den Broeck  Lotto-Belisol01h 08' 35"+  00:04:22 =46,804  km/h

27  Manuel Quinziato  BMC01h 08' 37"+  00:04:24 =46,782  km/h

28  Denis Menchov  Katusha01h 08' 41"+  00:04:28 =46,736  km/h

29  Aliaksandr Kuchynski  Katusha01h 08' 41"+  00:04:28 =46,736  km/h

30  Maxime Bouet  AG2R La Mondiale01h 08' 45"+  00:04:32 =46,691  km/h

31  Andriy Grivko  Astana Pro Team01h 08' 50"+  00:04:37 =46,634  km/h

32  Dan Martin  Garmin-Sharp-Barracuda01h 08' 54"+  00:04:41 =46,589  km/h

33  Sandy Casar  FDJ – Big Mat01h 09' 06"+  00:04:53 =46,454  km/h

34  George Hincapie  BMC01h 09' 10"+  00:04:57 =46,410  km/h

35  Yaroslav Popovych  Radioshack–Nissan01h 09' 21"+  00:05:08 =46,287  km/h

36  Eduard Vorganov  Katusha01h 09' 22"+  00:05:09 =46,276  km/h

37  Johan Vansummeren  Garmin-Sharp-Barracuda01h 09' 24"+  00:05:11 =46,254  km/h

38  Ivan Basso  Liquigas-Cannondale01h 09' 28"+  00:05:15 =46,209  km/h

39  Vladimir Karpets  Movistar01h 09' 30"+  00:05:17 =46,187  km/h

40  Luca Paolini  Katusha01h 09' 38"+  00:05:25 =46,099  km/h

41  Thibaut Pinot  FDJ – Big Mat01h 09' 44"+  00:05:31 =46,033  km/h

42  Haimar  Zubeldía  Radioshack–Nissan01h 09' 45"+  00:05:32 =46,022  km/h

43  Kevin De Weert  Omega Pharma – Quick Step01h 09' 46"+  00:05:33 =46,011  km/h

44  Christopher Horner  Radioshack–Nissan01h 09' 46"+  00:05:33 =46,011  km/h

45  Peter Sagan  Liquigas-Cannondale01h 09' 47"+  00:05:34 =46,000  km/h

46  Kris Boeckmans  Vacansoleil-DCM01h 09' 48"+  00:05:35 =45,989  km/h

47  Adam Hansen  Lotto-Belisol01h 09' 50"+  00:05:37 =45,967  km/h

48  Janez Brajkovič  Astana Pro Team01h 09' 51"+  00:05:38 =45,956  km/h

49  Fredrik Kessiakoff  Astana Pro Team01h 10' 01"+  00:05:48 =45,846  km/h

50  Michele Scarponi  Lampre-ISD01h 10' 02"+  00:05:49 =45,835  km/h

51  Yann Huguet  Argos–Shimano01h 10' 06"+  00:05:53 =45,792  km/h

52  Cadel Evans  BMC01h 10' 07"+  00:05:54 =45,781  km/h

53  Michael Rogers  Sky Procycling01h 10' 08"+  00:05:55 =45,770  km/h

54  Laurens Ten Dam  Rabobank01h 10' 14"+  00:06:01 =45,705  km/h

55  Andrey Kashechkin  Astana Pro Team01h 10' 16"+  00:06:03 =45,683  km/h

56  Maxim Iglinskiy  Astana Pro Team01h 10' 19"+  00:06:06 =45,651  km/h

57  Yukiya  Arashiro  Europcar01h 10' 19"+  00:06:06 =45,651  km/h

58  Michael Schär  BMC01h 10' 20"+  00:06:07 =45,640  km/h

59  Christian Knees  Sky Procycling01h 10' 20"+  00:06:07 =45,640  km/h

60  Alexandre Vinokourov  Astana Pro Team01h 10' 22"+  00:06:09 =45,618  km/h

61  Borut Božič  Astana Pro Team01h 10' 25"+  00:06:12 =45,586  km/h

62  Michael Albasini  Orica-GreenEDGE01h 10' 25"+  00:06:12 =45,586  km/h

63  Simon Gerrans  Orica-GreenEDGE01h 10' 26"+  00:06:13 =45,575  km/h

64  Pierre Rolland  Europcar01h 10' 27"+  00:06:14 =45,564  km/h

65  Egoi Martínez  Euskaltel-Euskadi01h 10' 27"+  00:06:14 =45,564  km/h

66  Julien Fouchard  Cofidis Le Credit En Ligne01h 10' 30"+  00:06:17 =45,532  km/h

67  Amaël Moinard  BMC01h 10' 31"+  00:06:18 =45,521  km/h

68  Bernhard Eisel  Sky Procycling01h 10' 32"+  00:06:19 =45,510  km/h

69  David Millar  Garmin-Sharp-Barracuda01h 10' 35"+  00:06:22 =45,478  km/h

70  Cyril Lemoine  Saur-Sojasun01h 10' 37"+  00:06:24 =45,457  km/h

71  Albert Timmer  Argos–Shimano01h 10' 37"+  00:06:24 =45,457  km/h

72  Kristjan Koren  Liquigas-Cannondale01h 10' 37"+  00:06:24 =45,457  km/h

73  Johnny Hoogerland  Vacansoleil-DCM01h 10' 41"+  00:06:28 =45,414  km/h

74  Christophe Riblon  AG2R La Mondiale01h 10' 42"+  00:06:29 =45,403  km/h

75  Koen De Kort  Argos–Shimano01h 10' 44"+  00:06:31 =45,382  km/h

76  Jean-Christophe Peraud  AG2R La Mondiale01h 10' 51"+  00:06:38 =45,307  km/h

77  Nicolas Roche  AG2R La Mondiale01h 10' 52"+  00:06:39 =45,296  km/h

78  Chris Anker Sørensen  Saxo Bank-Tinkoff Bank01h 10' 54"+  00:06:41 =45,275  km/h

79  Danilo Hondo  Lampre-ISD01h 10' 56"+  00:06:43 =45,254  km/h

80  Bram Tankink  Rabobank01h 10' 57"+  00:06:44 =45,243  km/h

81  Giampaolo Caruso  Katusha01h 10' 58"+  00:06:45 =45,233  km/h

82  Mark Cavendish  Sky Procycling01h 11' 11"+  00:06:58 =45,095  km/h

83  Gregory Henderson  Lotto-Belisol01h 11' 14"+  00:07:01 =45,063  km/h

84  Sérgio Paulinho  Saxo Bank-Tinkoff Bank01h 11' 14"+  00:07:01 =45,063  km/h

85  Nicki Sørensen  Saxo Bank-Tinkoff Bank01h 11' 15"+  00:07:02 =45,053  km/h

86  Brice Feillu  Saur-Sojasun01h 11' 15"+  00:07:02 =45,053  km/h

87  Juan José Cobo  Movistar01h 11' 15"+  00:07:02 =45,053  km/h

88  Rui Costa  Movistar01h 11' 25"+  00:07:12 =44,947  km/h

89  Sylwester Szmyd  Liquigas-Cannondale01h 11' 25"+  00:07:12 =44,947  km/h

90  Davide Malacarne  Europcar01h 11' 27"+  00:07:14 =44,927  km/h

91  Dimitiri Fofonov  Astana Pro Team01h 11' 30"+  00:07:17 =44,895  km/h

92  Matthieu Ladagnous  FDJ – Big Mat01h 11' 40"+  00:07:27 =44,791  km/h

93  Steven Kruijswijk  Rabobank01h 11' 45"+  00:07:32 =44,739  km/h

94  Francis De Greef  Lotto-Belisol01h 11' 46"+  00:07:33 =44,728  km/h

95  Yury  Trofimov  Katusha01h 11' 48"+  00:07:35 =44,708  km/h

96  Cyril Gautier  Europcar01h 11' 52"+  00:07:39 =44,666  km/h

97  Marcus Burghardt  BMC01h 12' 00"+  00:07:47 =44,583  km/h

98  Daryl Impey  Orica-GreenEDGE01h 12' 01"+  00:07:48 =44,573  km/h

99  Pierrick  Fédrigo  FDJ – Big Mat01h 12' 04"+  00:07:51 =44,542  km/h

100  Stephen Cummings  BMC01h 12' 04"+  00:07:51 =44,542  km/h

101  Joan Horrach  Katusha01h 12' 07"+  00:07:54 =44,511  km/h

102  Jorge Azanza  Euskaltel-Euskadi01h 12' 10"+  00:07:57 =44,480  km/h

103  Edvald Boasson Hagen  Sky Procycling01h 12' 10"+  00:07:57 =44,480  km/h

104  Pieter Weening  Orica-GreenEDGE01h 12' 14"+  00:08:01 =44,439  km/h

105  Marcel Sieberg  Lotto-Belisol01h 12' 15"+  00:08:02 =44,429  km/h

106  Jürgen Roelandts  Lotto-Belisol01h 12' 15"+  00:08:02 =44,429  km/h

107  Jérôme Pineau  Omega Pharma – Quick Step01h 12' 15"+  00:08:02 =44,429  km/h

108  Ruben Perez  Euskaltel-Euskadi01h 12' 22"+  00:08:09 =44,357  km/h

109  Pablo Urtasun  Euskaltel-Euskadi01h 12' 23"+  00:08:10 =44,347  km/h

110  Cédric Pineau  FDJ – Big Mat01h 12' 26"+  00:08:13 =44,317  km/h

111  Rafael Valls Ferri  Vacansoleil-DCM01h 12' 37"+  00:08:24 =44,205  km/h

112  Yohann Gène  Europcar01h 12' 39"+  00:08:26 =44,184  km/h

113  Alejandro Valverde  Movistar01h 12' 49"+  00:08:36 =44,083  km/h

114  Jimmy Engoulvent  Saur-Sojasun01h 12' 49"+  00:08:36 =44,083  km/h

115  Jan Ghyselinck  Cofidis Le Credit En Ligne01h 12' 53"+  00:08:40 =44,043  km/h

116  Gorka Izagirre  Euskaltel-Euskadi01h 12' 59"+  00:08:46 =43,983  km/h

117  Julien Simon  Saur-Sojasun01h 13' 01"+  00:08:48 =43,963  km/h

118  Jelle Vanendert  Lotto-Belisol01h 13' 08"+  00:08:55 =43,892  km/h

119  Anders Lund  Saxo Bank-Tinkoff Bank01h 13' 09"+  00:08:56 =43,882  km/h

120  Matthew Goss  Orica-GreenEDGE01h 13' 10"+  00:08:57 =43,872  km/h

121  Philippe Gilbert  BMC01h 13' 11"+  00:08:58 =43,862  km/h

122  Nicolas Edet  Cofidis Le Credit En Ligne01h 13' 11"+  00:08:58 =43,862  km/h

123  Martin Velits  Omega Pharma – Quick Step01h 13' 11"+  00:08:58 =43,862  km/h

124  Blel Kadri  AG2R La Mondiale01h 13' 12"+  00:08:59 =43,852  km/h

125  Roy Curvers  Argos–Shimano01h 13' 13"+  00:09:00 =43,842  km/h

126  Simone Stortoni  Lampre-ISD01h 13' 13"+  00:09:00 =43,842  km/h

127  Juan José Haedo  Saxo Bank-Tinkoff Bank01h 13' 15"+  00:09:02 =43,823  km/h

128  Romain Zingle  Cofidis Le Credit En Ligne01h 13' 15"+  00:09:02 =43,823  km/h

129  Federico Canuti  Liquigas-Cannondale01h 13' 16"+  00:09:03 =43,813  km/h

130  André Greipel  Lotto-Belisol01h 13' 17"+  00:09:04 =43,803  km/h

131  Nick Nuyens  Saxo Bank-Tinkoff Bank01h 13' 19"+  00:09:06 =43,783  km/h

132  Sébastien Hinault  AG2R La Mondiale01h 13' 19"+  00:09:06 =43,783  km/h

133  Jonathan Cantwell  Saxo Bank-Tinkoff Bank01h 13' 19"+  00:09:06 =43,783  km/h

134  Michael Mørkøv  Saxo Bank-Tinkoff Bank01h 13' 24"+  00:09:11 =43,733  km/h

135  Mikaël Cherel  AG2R La Mondiale01h 13' 24"+  00:09:11 =43,733  km/h

136  Luis Angel Mate  Cofidis Le Credit En Ligne01h 13' 27"+  00:09:14 =43,703  km/h

137  Fabrice Jeandesboz  Saur-Sojasun01h 13' 35"+  00:09:22 =43,624  km/h

138  Jérôme Coppel  Saur-Sojasun01h 13' 45"+  00:09:32 =43,525  km/h

139  Stuart O'Grady  Orica-GreenEDGE01h 13' 45"+  00:09:32 =43,525  km/h

140  Thomas  Voeckler  Europcar01h 13' 46"+  00:09:33 =43,516  km/h

141  Levi Leipheimer  Omega Pharma – Quick Step01h 13' 54"+  00:09:41 =43,437  km/h

142  Marco Marcato  Vacansoleil-DCM01h 14' 00"+  00:09:47 =43,378  km/h

143  Baden Cooke  Orica-GreenEDGE01h 14' 08"+  00:09:55 =43,300  km/h

144  Sebastian Langeveld  Orica-GreenEDGE01h 14' 12"+  00:09:59 =43,261  km/h

145  Guillaume Levarlet  Saur-Sojasun01h 14' 13"+  00:10:00 =43,252  km/h

146  Samuel Dumoulin  Cofidis Le Credit En Ligne01h 14' 27"+  00:10:14 =43,116  km/h

147  Alessandro Vanotti  Liquigas-Cannondale01h 14' 31"+  00:10:18 =43,078  km/h

148  Jean-Marc Marino  Saur-Sojasun01h 14' 32"+  00:10:19 =43,068  km/h

149  Sébastien Minard  AG2R La Mondiale01h 14' 40"+  00:10:27 =42,991  km/h

150  Marco Marzano  Lampre-ISD01h 14' 45"+  00:10:32 =42,943  km/h

151  Tyler Farrar  Garmin-Sharp-Barracuda01h 15' 09"+  00:10:56 =42,715  km/h

152  Arthur Vichot  FDJ – Big Mat01h 15' 17"+  00:11:04 =42,639  km/h

153  Karsten Kroon  Saxo Bank-Tinkoff Bank01h 15' 23"+  00:11:10 =42,582  km/h


Todays birthdays.

1884 • Vincenzo Borgarello
1889 • Emile Bonnefoi
1889 • Auguste Denizot
1890 • Maurice Petit
1904 • Pierino Ferioli
1905 • Vincent Carrara
1910 • Antoon Van Schendel
1925 • Georges Meunier
1945 • Gérard Besnard
1950 • Wim Kelleners
1960 • Ivan Ivanov
1960 • Pierre-Henri Menthéour
1962 • Giovanni Bottoia
1964 • Flavio Giupponi
1974 • Benoit Salmon
1977 • Iñigo Landaluze
1977 • Svein Tuft
1979 • Rubens Bertogliati
1985 • Matthew Busche

 

Optimized for Chrome - Edge
and Opera browsers.